This is the latest recevied weather packets stored in our database for station/object W6DSP. If no packets are shown the sender has not sent any weather packets the latest 10 day(s).
| Time | Temp. | Humidity | Pressure | Rain* | Wind** | Luminosity | Snow |
|---|---|---|---|---|---|---|---|
| 1778200578 | 11.11° C | 67% | 1012.9 hPa | 0 mm | - | - | - |
| 1778199868 | 11.11° C | 67% | 1012.9 hPa | 0 mm | - | - | - |
| 1778199157 | 11.67° C | 64% | 1013 hPa | 0 mm | - | - | - |
| 1778198441 | 11.67° C | 64% | 1013.2 hPa | 0 mm | - | - | - |
| 1778197738 | 12.22° C | 65% | 1013.3 hPa | 0 mm | - | - | - |
| 1778197046 | 12.22° C | 61% | 1013.4 hPa | 0 mm | - | - | - |
| 1778196292 | 12.22° C | 59% | 1013.4 hPa | 0 mm | - | - | - |
| 1778195568 | 12.22° C | 60% | 1013.3 hPa | 0 mm | - | - | - |
| 1778194810 | 12.78° C | 58% | 1013.5 hPa | 0 mm | - | - | - |
| 1778194068 | 12.78° C | 56% | 1013.6 hPa | 0 mm | - | - | - |
| 1778193324 | 12.78° C | 56% | 1013.8 hPa | 0 mm | - | - | - |
| 1778192601 | 12.78° C | 58% | 1014.1 hPa | 0 mm | - | - | - |
| 1778191865 | 12.78° C | 57% | 1014.2 hPa | 0 mm | - | - | - |
| 1778191143 | 12.78° C | 58% | 1014.3 hPa | 0 mm | - | - | - |
| 1778190452 | 12.78° C | 59% | 1014.2 hPa | 0 mm | - | - | - |
| 1778189695 | 12.78° C | 59% | 1014.2 hPa | 0 mm | - | - | - |
| 1778188939 | 12.78° C | 57% | 1014.1 hPa | 0 mm | - | - | - |
| 1778188197 | 13.33° C | 56% | 1014.2 hPa | 0 mm | - | - | - |
| 1778187468 | 13.89° C | 50% | 1014.1 hPa | 0 mm | - | - | - |
| 1778186736 | 13.89° C | 49% | 1013.8 hPa | 0 mm | - | - | - |
| 1778186047 | 14.44° C | 43% | 1013.7 hPa | 0 mm | - | - | - |
| 1778185339 | 15.56° C | 45% | 1013.5 hPa | 0 mm | - | - | - |
| 1778184639 | 15.56° C | 44% | 1013.7 hPa | 0 mm | - | - | - |
| 1778183934 | 15.56° C | 41% | 1013.6 hPa | 0 mm | - | - | - |
| 1778183230 | 15° C | 40% | 1014 hPa | 0 mm | - | - | - |
* Rain latest hour (hover to see other rain measurements)
** Current wind speed in m/s (hover to see current wind gust speed)